Location: *
(40.7873°S, 98.7174°E)
Time: 16:21:15
(UTC+00:00)

Tiangong - Visible Passes

Search period start: 16 August 2022 00:00
Search period end: 26 August 2022 00:00
Orbit: 381 x 385 km, 41.5° (Epoch: 16 August)

Date Brightness Start Highest point End Pass type
(mag) Time Alt. Az. Time Alt. Az. Time Alt. Az.
18 Aug 0.5 23:36:49 10° NNW 23:39:15 20° NNE 23:41:40 10° E visible
19 Aug 0.9 22:37:59 10° NNE 22:39:11 12° NE 22:40:23 10° ENE visible
20 Aug -0.5 23:12:23 10° NW 23:15:17 31° NNE 23:18:11 10° E visible
21 Aug 0.1 22:14:35 19° NNE 22:15:06 19° NNE 22:17:29 10° ENE visible
22 Aug -1.4 22:49:31 22° NW 22:51:14 48° NNE 22:54:22 10° E visible
23 Aug 0.2 21:52:07 23° ENE 21:52:07 23° ENE 21:53:48 10° E visible
23 Aug -2.1 23:24:19 10° W 23:27:33 88° S 23:30:47 10° E visible
24 Aug -2.1 22:26:45 63° NNW 22:27:05 71° NNE 22:30:18 10° E visible
25 Aug 1.1 21:29:09 14° E 21:29:09 14° E 21:29:45 10° E visible
25 Aug -2.1 23:01:18 20° W 23:03:22 78° S 23:06:37 10° E visible
